User: anonymous   Login
Location: ??????
(42.0089°N, 44.3281°E)
Time: 08:19:29
(UTC+00:00)
Language:

EXPRESS MD2 - Orbit

View from above orbital plane
View from above orbital plane
View from above satellite
View from above satellite

Ground track
Ground track

The orbit data is extracted from the following two-line orbital elements,

1 38745U 12044B   22019.49619945  .00027015  26468-5  66284-3 0  9994
2 38745  49.8827  43.3672 2145096 239.5130  97.6706 11.16843963371831
Epoch (UTC): 19 January 2022 11:54:31
Eccentricity: 0.2145096
inclination: 49.8827°
perigee height: 262 km
apogee height: 3889 km
right ascension of ascending node: 43.3672°
argument of perigee: 239.5130°
revolutions per day: 11.16843963
mean anomaly at epoch: 97.6706°
orbit number at epoch: 37183

The dashed part of the orbit path shows where the satellite is in the earth's shadow,  

DLR